Vertical_Velocity
-3 -1 -1 1 5 9 -3 -4 -2 -1 5 -11 -0 -4 -12 -13 -7 -16 1 -6 -3 6 0 -0 -4 -0 -4 0 5 0 1 1 2 -1 -1 -5 -3 -1 -4 -1 3 2 2 1 -3 -2 -2 2 -5
-4 -2 8 2 9 7 -7 -3 -2 -7 -11 12 9 7 6 -11 -1 8 3 -13 2 -4 4 7 1 -3 -5 -1 2 3 1 1 -0 1 1 -1 -6 -2 -3 -1 3 2 1 -1 -1 -2 1 0 -1
-0 4 3 1 1 -2 -3 -1 -5 -7 -18 2 2 8 1 -22 2 5 5 -9 -0 -0 -2 1 6 -2 -1 -5 -0 4 3 1 0 -1 3 2 0 -4 -4 1 1 -1 -2 1 -1 -2 1 -1 -0
-5 6 0 10 -5 -6 -4 -2 -0 -1 -6 10 5 -1 7 -1 4 -5 -1 6 -0 3 2 1 5 9 -3 1 -2 1 4 2 3 -1 0 2 5 -1 -3 -4 -1 -3 -3 -1 -1 -1 1 2 -1
-7 -0 4 5 -11 -6 -3 -1 1 -1 -0 -6 4 -6 0 -1 6 4 -2 10 -8 -3 7 0 0 4 4 -2 1 0 2 2 2 3 -1 0 3 3 1 -3 -1 -1 -1 -2 -1 -1 -2 3 -0
-4 1 6 0 -6 -4 -2 -10 5 1 -2 -10 -1 -1 -12 10 48 6 -0 0 10 -6 4 3 1 2 4 -2 3 0 -1 1 3 1 2 1 0 1 1 2 -0 -1 -1 -1 -1 -2 2 -2 0
-3 1 -2 -1 -4 -5 -2 10 4 2 -0 -1 6 1 -13 56 -3 -9 38 -2 12 2 4 4 1 1 5 -1 2 1 2 2 -1 3 1 1 2 1 -0 1 2 1 -0 -1 1 -1 3 -5 -0
2 -1 0 -2 -3 -7 -3 -2 3 6 -2 2 4 2 -4 -7 -11 20 -13 18 -1 -3 -2 0 -2 3 -1 2 2 2 2 -1 1 -0 3 -0 4 1 1 1 1 1 -0 0 -3 2 -0 2 -2
4 2 -0 -2 1 -5 -6 4 -6 1 -3 2 -1 1 1 -4 -6 -9 -12 18 27 6 8 5 -1 0 -0 2 4 7 3 4 4 2 1 2 1 1 2 1 -0 1 -0 -1 -1 -1 3 1 2
1 2 -3 -2 -1 -1 -2 8 1 4 -2 -15 -8 1 -24 11 -6 -6 -11 5 3 59 -7 12 0 -1 -0 1 3 10 8 9 -1 1 -0 2 2 1 -0 -0 2 2 2 -0 -2 2 2 2 0
-4 -1 -3 -12 -2 5 -0 -1 3 3 -5 -5 -3 -0 -7 -8 3 -7 3 3 0 4 53 -11 -1 -3 8 7 1 3 8 4 6 3 -2 -1 1 4 1 1 1 -0 0 -1 -4 -2 3 2 1
8 -3 4 -12 -2 2 -1 -1 -4 6 -12 -4 2 2 -4 -23 5 -6 -6 -3 -6 -3 4 67 4 -2 2 13 11 1 1 6 6 4 1 -2 1 1 3 1 -3 -4 -4 -2 -1 2 -3 1 -3
6 -4 -0 -2 1 -1 5 -3 -2 -5 -7 2 -6 4 -2 -12 -13 -0 -5 -7 -6 -7 -6 8 37 8 4 1 6 2 -3 6 3 5 -0 -5 -2 -1 1 2 -0 -1 -1 -3 0 -0 4 -2 -2
0 1 -3 -2 -4 0 12 -11 28 -21 -4 -6 -8 -10 -2 -3 -6 1 -2 -14 6 -14 -5 -0 4 41 10 4 4 1 4 7 3 8 -5 1 1 -3 0 1 -1 2 0 -1 -3 -1 4 1 -1
2 2 -5 -7 -7 -6 8 -7 -2 -8 3 -4 -4 -6 -4 -3 -14 -7 -2 -15 -3 -8 -1 0 -5 6 20 10 5 3 7 11 -2 5 -0 1 -1 0 1 1 -0 2 -1 1 -2 1 3 1 1
2 4 1 0 1 -12 15 -19 -12 -5 5 -6 -3 -4 -5 -9 -12 -14 -9 -13 8 -10 -0 5 -4 13 28 12 7 8 7 7 3 9 3 4 2 4 3 -2 -1 1 1 -2 -1 1 -1 -1 -0
-0 -2 1 -15 0 -1 7 -8 -11 -5 5 -2 -1 -5 -5 -7 4 -6 -5 -5 -8 -1 -1 -23 -10 -5 7 16 10 9 3 10 1 4 1 10 23 -5 -3 -2 -2 5 -2 -0 -3 0 5 -1 -2
-1 0 -4 0 -13 -1 -4 -8 -7 -5 5 -2 -4 -5 -3 -3 -14 7 -5 7 7 14 -25 -35 -15 -5 -3 20 12 10 14 5 9 29 6 -16 10 56 -1 -1 4 2 -1 -1 -2 -0 4 5 0
3 4 2 -12 -11 14 -2 -2 -7 -5 3 -0 -2 -1 -4 12 4 -9 4 24 14 13 18 2 -10 -16 16 31 10 9 -0 -1 4 11 19 2 -15 -32 17 13 8 -1 -0 3 5 4 -1 -0 5
1 2 -9 -14 -3 13 -2 -11 -5 -0 -4 -0 -0 12 2 -1 0 3 -4 1 -3 -14 1 17 4 -8 -3 18 8 4 -4 -1 0 3 -2 -1 -24 -8 11 5 4 4 -2 2 -2 -1 -7 2 3
-0 3 -2 9 -9 -5 12 -9 -2 -10 0 8 -4 3 0 2 -3 -4 -5 -5 2 16 20 -6 -8 -10 -0 6 21 13 13 15 6 7 4 -1 3 -6 -5 -15 6 -3 -2 -0 2 -5 -4 -5 -3
1 -1 4 2 7 1 -1 -10 0 1 2 -2 -0 -3 -1 1 -4 -1 -3 -3 -11 2 6 4 6 -10 -15 -2 21 -8 -7 -11 -6 -6 -9 -3 3 -2 5 -3 -5 -8 5 -13 3 -0 -2 1 -5
-12 4 6 4 3 7 -5 10 3 -2 -3 -0 -0 -2 -0 2 0 -3 1 -6 -6 1 6 -1 -13 7 -16 1 19 3 5 12 4 -4 1 3 6 8 -1 -2 -1 5 -11 -5 -10 -4 -9 -2 3
0 -1 -2 -1 0 4 -7 1 3 1 7 -2 -2 -1 -0 -1 -2 1 2 -6 -3 1 12 -4 -6 -15 8 1 10 0 -0 -4 -2 1 0 -3 -2 -1 8 6 3 1 6 -3 -18 -3 7 -5 2
-8 -5 -7 -13 -6 -8 -0 -4 8 2 2 5 3 -1 -2 1 -1 -6 -3 -9 -6 5 -0 10 -16 6 3 -13 0 3 6 -2 6 -5 -3 -5 -5 -0 -8 -6 0 -3 7 8 -7 -6 0 -5 -4
-1 -4 -4 -0 -1 -5 -3 2 10 4 2 2 1 3 -2 -0 -1 -4 -4 -4 -2 6 9 4 -4 -14 -13 -6 64 10 10 -3 5 -2 -2 2 -1 -4 -2 3 5 3 -3 10 7 -6 2 -1 -5
-10 -7 -9 2 -1 8 -1 4 11 -4 -4 -4 -0 -3 -3 1 -3 -3 -4 -3 -2 1 -7 12 3 5 -19 -19 18 22 0 -7 -7 2 4 5 2 1 0 2 -1 2 1 -3 13 11 -11 -5 -5
-11 -5 -16 -5 -1 -3 -2 1 -2 -6 -3 -2 -3 -1 -3 -0 -3 -3 -4 1 -1 3 5 13 -7 4 -15 10 10 13 -8 -4 1 1 -2 -1 3 0 -1 0 -0 2 2 1 6 -3 7 4 -12
-6 -3 -5 -6 -1 3 0 -6 2 1 2 2 0 0 1 0 -2 -2 -1 -0 1 -3 -3 9 9 -1 -17 14 3 1 38 1 -1 4 1 2 5 -1 2 2 1 -1 -3 3 1 3 1 0 8
-3 -3 -3 -5 -11 -2 2 -9 0 1 1 3 0 0 -1 3 1 -2 -1 -1 3 -2 -0 5 12 -3 -9 6 -5 -8 -7 16 2 0 -1 -2 1 3 3 -0 5 1 -1 1 4 -2 -3 -3 2
Height
1498 1501 1504 1506 1511 1494 1486 1482 1478 1480 1480 1474 1474 1473 1471 1473 1474 1490 1470 1472 1475 1479 1481 1484 1488 1493 1498 1503 1505 1507 1511 1515 1518 1522 1525 1529 1534 1537 1541 1544 1546 1547 1549 1550 1551 1553 1553 1555 1556
1499 1501 1504 1503 1497 1491 1477 1478 1476 1474 1472 1469 1473 1472 1471 1470 1471 1472 1471 1473 1475 1478 1480 1482 1485 1489 1494 1501 1505 1507 1510 1513 1517 1521 1525 1528 1533 1537 1541 1544 1547 1549 1550 1550 1552 1554 1555 1556 1558
1497 1499 1502 1497 1483 1471 1478 1473 1474 1473 1469 1466 1470 1469 1468 1467 1470 1470 1471 1472 1475 1475 1479 1482 1483 1486 1492 1498 1504 1508 1509 1512 1516 1520 1525 1528 1531 1535 1541 1544 1547 1549 1550 1551 1552 1555 1556 1558 1560
1496 1498 1497 1482 1469 1474 1474 1472 1473 1472 1471 1468 1467 1466 1462 1463 1465 1468 1472 1472 1474 1474 1476 1480 1482 1485 1489 1495 1501 1507 1510 1512 1516 1519 1524 1528 1531 1534 1538 1543 1545 1549 1551 1551 1553 1555 1557 1560 1561
1496 1496 1488 1470 1464 1472 1474 1474 1475 1471 1470 1468 1467 1463 1462 1462 1464 1466 1467 1471 1471 1474 1475 1477 1481 1484 1488 1494 1499 1505 1510 1513 1516 1519 1523 1527 1531 1534 1537 1540 1545 1547 1550 1551 1553 1555 1558 1560 1563
1496 1496 1484 1472 1473 1474 1472 1474 1471 1470 1464 1467 1467 1466 1461 1463 1466 1465 1466 1468 1469 1472 1473 1475 1479 1483 1487 1492 1498 1503 1508 1512 1516 1519 1523 1527 1530 1533 1537 1540 1543 1546 1549 1551 1553 1556 1558 1561 1564
1498 1499 1487 1481 1478 1478 1472 1472 1470 1472 1473 1473 1473 1470 1460 1459 1453 1463 1463 1467 1470 1469 1472 1474 1478 1482 1487 1490 1496 1501 1506 1511 1515 1519 1522 1526 1529 1532 1536 1539 1542 1546 1548 1551 1554 1556 1558 1561 1564
1495 1497 1495 1485 1480 1478 1478 1474 1474 1476 1474 1474 1473 1470 1462 1460 1459 1460 1461 1460 1465 1467 1470 1472 1476 1480 1484 1489 1494 1498 1503 1507 1512 1518 1522 1525 1529 1532 1535 1538 1541 1544 1548 1550 1553 1556 1558 1561 1565
1493 1498 1491 1487 1485 1481 1479 1476 1472 1477 1478 1475 1473 1472 1467 1463 1461 1456 1459 1458 1462 1464 1466 1467 1471 1476 1481 1486 1490 1495 1500 1504 1510 1515 1520 1524 1527 1530 1534 1537 1540 1543 1546 1550 1552 1556 1559 1562 1564
1492 1494 1486 1483 1483 1481 1477 1478 1477 1475 1477 1473 1466 1471 1467 1463 1461 1461 1463 1456 1456 1463 1465 1467 1468 1473 1477 1481 1486 1491 1497 1502 1505 1510 1516 1520 1524 1528 1532 1536 1540 1542 1545 1548 1552 1555 1560 1562 1564
1486 1486 1480 1478 1479 1480 1473 1471 1475 1472 1470 1471 1464 1462 1464 1456 1457 1458 1454 1457 1456 1456 1463 1462 1464 1469 1473 1476 1481 1487 1493 1498 1501 1506 1510 1517 1522 1525 1529 1534 1538 1541 1544 1546 1549 1555 1559 1562 1564
1486 1479 1475 1474 1474 1473 1470 1467 1468 1470 1468 1468 1465 1461 1460 1460 1452 1452 1454 1454 1450 1453 1453 1462 1461 1463 1469 1473 1477 1482 1487 1493 1496 1502 1505 1512 1518 1522 1525 1529 1533 1538 1541 1545 1548 1553 1558 1561 1563
1481 1477 1473 1470 1468 1468 1467 1462 1462 1462 1463 1462 1458 1454 1457 1457 1446 1448 1449 1449 1451 1450 1451 1454 1463 1463 1464 1468 1473 1477 1482 1488 1492 1497 1500 1506 1513 1518 1522 1525 1529 1533 1538 1543 1547 1552 1556 1560 1562
1477 1475 1470 1467 1464 1463 1462 1457 1459 1456 1458 1456 1456 1447 1448 1449 1447 1443 1440 1441 1447 1451 1450 1449 1452 1460 1461 1463 1467 1470 1476 1482 1487 1493 1496 1502 1508 1514 1519 1523 1527 1531 1537 1540 1545 1551 1555 1559 1561
1475 1475 1465 1459 1457 1457 1460 1454 1450 1449 1450 1448 1450 1447 1443 1443 1442 1433 1435 1437 1443 1442 1441 1446 1448 1450 1457 1459 1462 1467 1471 1477 1483 1486 1491 1497 1503 1509 1514 1519 1523 1529 1535 1538 1543 1549 1554 1558 1561
1477 1474 1474 1452 1455 1452 1455 1452 1443 1442 1444 1443 1443 1443 1441 1438 1438 1435 1432 1434 1435 1435 1438 1441 1443 1446 1451 1455 1458 1462 1465 1472 1476 1480 1485 1491 1497 1503 1509 1515 1520 1526 1532 1536 1540 1545 1550 1555 1560
1477 1482 1469 1448 1451 1449 1450 1445 1434 1435 1437 1436 1435 1436 1433 1432 1432 1432 1430 1431 1427 1430 1431 1433 1441 1440 1438 1450 1453 1456 1460 1465 1465 1471 1476 1482 1486 1493 1501 1509 1516 1522 1527 1533 1537 1543 1548 1551 1558
1477 1473 1463 1457 1444 1447 1441 1437 1427 1428 1430 1427 1428 1428 1427 1424 1418 1422 1419 1422 1422 1425 1426 1431 1427 1434 1437 1445 1448 1452 1455 1458 1460 1451 1464 1473 1472 1484 1493 1501 1509 1516 1522 1528 1534 1540 1546 1551 1554
1468 1466 1462 1444 1441 1445 1436 1428 1420 1421 1423 1421 1422 1423 1421 1419 1417 1412 1412 1411 1412 1414 1422 1420 1426 1427 1431 1437 1440 1444 1447 1452 1456 1457 1449 1460 1475 1484 1482 1492 1500 1508 1517 1523 1531 1536 1541 1549 1553
1463 1462 1456 1436 1435 1439 1430 1417 1416 1413 1415 1416 1415 1418 1418 1415 1413 1412 1411 1410 1412 1412 1414 1409 1415 1416 1420 1424 1433 1437 1443 1448 1453 1454 1457 1457 1465 1478 1480 1488 1491 1500 1512 1521 1527 1532 1536 1545 1550
1463 1460 1450 1446 1429 1432 1422 1408 1408 1403 1408 1411 1422 1424 1421 1419 1415 1412 1408 1405 1402 1404 1399 1401 1408 1414 1415 1418 1428 1432 1438 1443 1445 1449 1453 1458 1468 1472 1481 1489 1494 1499 1507 1518 1522 1527 1533 1536 1545
1472 1450 1446 1438 1440 1428 1420 1411 1404 1413 1420 1425 1427 1427 1425 1419 1416 1413 1408 1403 1397 1389 1391 1387 1400 1401 1403 1411 1419 1423 1428 1432 1438 1445 1451 1457 1464 1468 1474 1478 1488 1498 1503 1514 1520 1524 1530 1534 1538
1458 1448 1438 1425 1431 1433 1409 1418 1423 1421 1427 1431 1433 1432 1427 1423 1418 1413 1408 1405 1399 1391 1390 1388 1394 1390 1401 1404 1410 1417 1422 1427 1432 1440 1446 1452 1459 1465 1470 1477 1484 1489 1492 1506 1514 1520 1526 1530 1537
1454 1449 1435 1430 1432 1435 1407 1412 1439 1438 1442 1438 1437 1434 1429 1423 1416 1412 1406 1400 1397 1387 1378 1379 1389 1396 1404 1398 1404 1410 1413 1417 1425 1431 1439 1445 1452 1459 1466 1471 1477 1483 1485 1490 1502 1514 1519 1524 1531
1467 1472 1478 1466 1452 1439 1394 1413 1446 1449 1445 1443 1440 1436 1431 1426 1417 1408 1406 1400 1392 1384 1377 1381 1386 1390 1383 1386 1392 1399 1405 1408 1415 1421 1429 1436 1442 1449 1457 1464 1471 1475 1481 1484 1492 1503 1512 1518 1525
1476 1477 1492 1488 1470 1424 1411 1419 1451 1453 1449 1445 1442 1438 1433 1427 1418 1411 1408 1404 1396 1391 1379 1382 1389 1385 1382 1378 1383 1390 1396 1401 1409 1415 1421 1427 1433 1440 1450 1457 1464 1470 1475 1482 1483 1494 1504 1512 1520
1472 1486 1472 1471 1459 1446 1430 1445 1447 1444 1446 1444 1440 1436 1433 1426 1418 1411 1406 1400 1393 1386 1385 1382 1379 1378 1380 1380 1377 1383 1387 1396 1402 1409 1415 1421 1427 1434 1442 1449 1457 1464 1469 1476 1480 1486 1494 1503 1511
1469 1471 1486 1488 1477 1455 1434 1444 1443 1449 1447 1443 1440 1436 1432 1426 1417 1411 1408 1402 1392 1386 1384 1374 1377 1372 1378 1367 1370 1373 1379 1389 1394 1403 1409 1413 1420 1426 1435 1442 1450 1457 1463 1469 1476 1482 1486 1493 1503
1476 1485 1493 1492 1477 1455 1446 1456 1451 1455 1451 1447 1443 1438 1432 1426 1419 1411 1405 1399 1395 1385 1376 1376 1374 1374 1374 1364 1362 1360 1372 1379 1387 1394 1402 1407 1415 1420 1427 1434 1442 1450 1456 1461 1468 1475 1480 1489 1494
1476 1482 1493 1491 1493 1484 1458 1445 1451 1452 1450 1446 1442 1438 1431 1426 1420 1412 1404 1396 1387 1387 1380 1370 1368 1373 1373 1365 1359 1357 1366 1369 1379 1386 1393 1400 1407 1413 1420 1428 1434 1442 1448 1454 1459 1466 1473 1480 1486